{"data":{"norad_id":69036,"epoch":"2026-05-25T04:00:03.998880Z","epoch_age_seconds":54426,"freshness":"FRESH","line1":"1 69036U 26101M   26145.16671295 -.01934891  00000+0 -22866-1 0  9990","line2":"2 69036  97.2852 359.9121 0001605  92.9626 353.6569 15.64422299  4224","mean_motion":15.64422299,"eccentricity":0.0001605,"inclination_deg":97.2852,"raan_deg":359.9121,"arg_perigee_deg":92.9626,"mean_anomaly_deg":353.6569,"bstar":-0.022866,"rev_number":422,"period_min":92.046757510454,"perigee_km":373.8168677831,"apogee_km":375.98459289454,"semimajor_km":6753.0377303388,"source":"CELESTRAK","updated_at":"2026-05-25T13:38:22.081619Z"}}